Regional Weather Roundup
Issued by NWS

Home | Current Version | Previous Version | Graphics & Text | Print | Product List | Glossary On
Versions: 1 2 3 4 5 6 7 8 9 10 11 12 13 14 15 16 17 18 19 20 21 22 23 24 25 26 27 28 29 30 31 32 33 34 35 36 37 38 39 40 41 42 43 44 45 46 47 48 49 50
000
ASUS45 KCYS 091810
RWRWY

WYOMING REGIONAL WEATHER ROUNDUP
NATIONAL WEATHER SERVICE CHEYENNE WY
1200 PM MDT WED JUL 09 2014

NOTE:  "FAIR" INDICATES FEW OR NO CLOUDS BELOW 12,000 FEET
WITH NO SIGNIFICANT WEATHER AND/OR OBSTRUCTIONS TO VISIBILITY.

WYZ001-091900-
YELLOWSTONE NATIONAL PARK

CITY           SKY/WX    TMP DP  RH WIND       PRES   REMARKS
LK YELLOWSTONE   N/A     69  44  40 VRB5      30.28F
6HR MIN TEMP:  41; 6HR MAX TEMP:  70;

W YELLOWSTONE  NOT AVBL

$$
WYZ002>013-054>058-071-098>099-091900-
NORTHERN WYOMING

CITY           SKY/WX    TMP DP  RH WIND       PRES   REMARKS
JACKSON        SUNNY     75  46  35 S8        30.18F
CODY           NOT AVBL
GREYBULL       SUNNY     84  47  27 VRB5      29.97F
6HR MIN TEMP:  60; 6HR MAX TEMP:  85;

WORLAND        SUNNY     84  48  28 VRB5      29.98F
6HR MIN TEMP:  57; 6HR MAX TEMP:  84;

SHERIDAN       SUNNY     85  54  34 SE8       30.00F
6HR MIN TEMP:  53; 6HR MAX TEMP:  85;

BUFFALO        SUNNY    N/A N/A N/A MISG      30.07F
GILLETTE       SUNNY     79  52  38 VRB3      30.05F
6HR MIN TEMP:  59; 6HR MAX TEMP:  80;

HULETT         FAIR      77  52  41 MISG      30.07
NEWCASTLE      FAIR      79  46  31 MISG      30.05

$$
WYZ014>020-022>026-101>103-091900-
CENTRAL WYOMING

CITY           SKY/WX    TMP DP  RH WIND       PRES   REMARKS
BIG PINEY      SUNNY     81  32  17 S8        30.23F
6HR MIN TEMP:  43; 6HR MAX TEMP:  82;

PINEDALE       CLEAR     81  28  15 W3        30.24S
DUBOIS         FAIR      82  21  10 W10G18    30.18F
LANDER         SUNNY     85  44  23 SE6       30.07
6HR MIN TEMP:  60; 6HR MAX TEMP:  85;

RIVERTON       SUNNY     81  47  30 VRB7      30.08F
6HR MIN TEMP:  57; 6HR MAX TEMP:  81;

CASPER         SUNNY     82  49  31 VRB6      30.08F
6HR MIN TEMP:  52; 6HR MAX TEMP:  82;

DOUGLAS        SUNNY     81  53  37 CALM      30.08F
6HR MIN TEMP:  57; 6HR MAX TEMP:  82; 6HR PCP:  0.13;


$$
WYZ021-027>030-104>119-091900-
SOUTHERN WYOMING

CITY           SKY/WX    TMP DP  RH WIND       PRES   REMARKS
EVANSTON       MOSUNNY   81  44  27 SW15      30.25F
6HR MIN TEMP:  58; 6HR MAX TEMP:  82;

FORT BRIDGER   FAIR      87  35  15 W13       30.26F
ROCK SPRINGS   SUNNY     86  32  14 SW7G23    30.20F
6HR MIN TEMP:  64; 6HR MAX TEMP:  88;

DIXON          FAIR      87  37  16 SW9       30.22F
RAWLINS        SUNNY     86  33  15 W12G23    30.19F
6HR MIN TEMP:  52; 6HR MAX TEMP:  86;

SARATOGA       FAIR      84  39  20 W15G29    30.23F
LARAMIE        SUNNY     82  42  24 N9G21     30.22S
6HR MIN TEMP:  50; 6HR MAX TEMP:  83;

CHEYENNE       SUNNY     79  55  43 SE12      30.16S
6HR MIN TEMP:  56; 6HR MAX TEMP:  81;

TORRINGTON     SUNNY     78  58  49 VRB3      30.03F
6HR MIN TEMP:  59; 6HR MAX TEMP:  78; 6HR PCP:  0.03;


$$


USA.gov is the U.S. government's official web portal to all federal, state and local government web resources and services.